Location: Taipo
(41.0000°S, 175.9500°E)
Time: 03:21:28
(UTC+00:00)

Cosmos 1943 Rocket - Pass Details

Date: 18 April 2024
Orbit: 810 x 845 km, 71.0° (Epoch: 22 May)

Event Time Altitude Azimuth Distance (km) Brightness Sun altitude
Rises 17:17:56 0° 338° (NNW) 3,379 5.1 -18.1°
Reaches altitude 10° 17:20:22 10° 338° (NNW) 2,448 4.4 -17.7°
Maximum altitude 17:26:00 89° 248° (WSW) 844 2.1 -16.6°
Drops below altitude 10° 17:31:40 10° 157° (SSE) 2,454 4.9 -15.5°
Sets 17:34:06 0° 156° (SSE) 3,388 5.6 -15.1°
